Weather History for Duluth, MN

Change the Weather History Date:

Sunday, December 29, 2013

  Actual Average Record
Temperature  
Mean Temperature -4 °F 11 °F  
Max Temperature 7 °F 19 °F 46 °F (1999)
Min Temperature -16 °F 3 °F -30 °F (1917)
Degree Days  
Heating Degree Days 69 54  
Month to date heating degree days 1710 1450  
Since 1 July heating degree days 3667 3663  
Cooling Degree Days 0 0  
Month to date cooling degree days 0 0  
Year to date cooling degree days 375 204  
Moisture  
Dew Point -18 °F    
Average Humidity 66    
Maximum Humidity 80    
Minimum Humidity 52    
Precipitation  
Precipitation T in 0.04 in 0.88 in (1972)
Month to date precipitation 2.88 1.14  
Year to date precipitation 30.48 30.89  
Snow  
Snow T in 0.60 in 7.50 in (1972)
Month to date snowfall 39.9 16.4  
Since 1 July snowfall 44.9 32.5  
Snow Depth 18.00 in    
Sea Level Pressure  
Sea Level Pressure 30.26 in    
Wind  
Wind Speed 12 mph (NW)    
Max Wind Speed 22 mph    
Max Gust Speed 30 mph    
Visibility 10 miles    
Events Snow    
T = Trace of Precipitation, MM = Missing Value Source: NWS Daily Summary

Daily Weather History Graph

Daily Weather History Graph

Search for Another Location

Airport:

Trip Planner

Search our weather history database for the weather conditions in past years. The results will help you decide how hot, cold, wet, or windy it might be!

Date:

Astronomy

Dec. 29, 2013 Rise Set
Actual Time 7:53 AM CST 4:28 PM CST
Civil Twilight 7:18 AM CST 5:03 PM CST
Nautical Twilight 6:39 AM CST 5:42 PM CST
Astronomical Twilight 6:02 AM CST 6:19 PM CST
Moon 4:32 AM CST (12/29) 2:11 PM CST (12/29)
Length of Visible Light 9h 45m
Length of Day
8h 34m
Waning Crescent, 11% of the Moon is Illuminated
Dec 29
Waning Crescent
Jan 1
New
Jan 7
First Quarter
Jan 15
Full
Jan 23
Last Quarter

Hourly Weather History & Observations

Time (CST) Temp. Windchill Dew Point Humidity Pressure Visibility Wind Dir Wind Speed Gust Speed Precip Events Conditions
12:55 AM 3.9 °F -15.6 °F -2.9 °F 73% 30.13 in 5.0 mi North 17.3 mph 24.2 mph 0.00 in Snow Light Snow
1:24 AM 3.2 °F -16.5 °F -4.0 °F 72% 30.05 in 9.0 mi North 17.3 mph 27.6 mph 0.00 in Snow Light Snow
1:55 AM 1.9 °F -17.5 °F -4.0 °F 76% 30.17 in 9.0 mi North 16.1 mph 27.6 mph 0.00 in Snow Light Snow
2:55 AM -0.0 °F -18.0 °F -7.1 °F 72% 30.19 in 9.0 mi NNW 12.7 mph 21.9 mph 0.00 in Snow Light Snow
3:55 AM -2.9 °F -24.4 °F -9.9 °F 72% 30.19 in 10.0 mi North 17.3 mph 26.5 mph 0.00 in   Clear
4:55 AM -6.0 °F -27.7 °F -13.0 °F 72% 30.23 in 9.0 mi NNW 16.1 mph 23.0 mph N/A   Clear
5:55 AM -8.0 °F -28.0 °F -15.0 °F 71% 30.25 in 10.0 mi NNW 12.7 mph - N/A   Clear
6:55 AM -9.9 °F -27.5 °F -17.0 °F 71% 30.30 in 10.0 mi NNW 9.2 mph - N/A   Partly Cloudy
7:55 AM -11.9 °F -28.7 °F -18.9 °F 71% 30.30 in 9.0 mi NNW 8.1 mph - N/A   Overcast
8:55 AM -11.0 °F -32.7 °F -18.9 °F 68% 30.32 in 10.0 mi NNW 13.8 mph - N/A   Mostly Cloudy
9:55 AM -11.0 °F -31.8 °F -20.0 °F 64% 30.33 in 10.0 mi NNW 12.7 mph - N/A   Mostly Cloudy
10:55 AM -11.0 °F -30.9 °F -20.0 °F 64% 30.33 in 10.0 mi NNW 11.5 mph 21.9 mph N/A   Scattered Clouds
11:55 AM -9.0 °F -30.2 °F -20.0 °F 59% 30.31 in 10.0 mi NNW 13.8 mph 19.6 mph N/A   Partly Cloudy
12:55 PM -8.0 °F -28.0 °F -20.0 °F 56% 30.29 in 10.0 mi NNW 12.7 mph 21.9 mph N/A   Clear
1:55 PM -7.1 °F -26.8 °F -18.9 °F 56% 30.28 in 10.0 mi NNW 12.7 mph - N/A   Clear
2:55 PM -7.1 °F -25.9 °F -20.0 °F 53% 30.27 in 10.0 mi NNW 11.5 mph - N/A   Clear
3:55 PM -8.0 °F -28.8 °F -20.0 °F 56% 30.28 in 10.0 mi WNW 13.8 mph - N/A   Clear
4:55 PM -9.9 °F -27.5 °F -20.9 °F 59% 30.28 in 10.0 mi WNW 9.2 mph - N/A   Clear
5:55 PM -11.0 °F -29.9 °F -22.0 °F 58% 30.28 in 10.0 mi WNW 10.4 mph - N/A   Clear
6:55 PM -11.9 °F -27.3 °F -23.1 °F 58% 30.27 in 10.0 mi WNW 6.9 mph - N/A   Clear
7:55 PM -13.0 °F -32.4 °F -24.0 °F 58% 30.28 in 10.0 mi NW 10.4 mph - N/A   Clear
8:55 PM -13.0 °F -32.4 °F -24.0 °F 58% 30.28 in 10.0 mi NW 10.4 mph - N/A   Clear
9:55 PM -14.1 °F -34.7 °F -24.0 °F 61% 30.29 in 10.0 mi NW 11.5 mph - N/A   Clear
10:55 PM -15.0 °F -32.4 °F -24.0 °F 64% 30.29 in 10.0 mi WNW 8.1 mph - N/A   Clear
11:55 PM -16.1 °F -32.3 °F -25.1 °F 64% 30.28 in 10.0 mi WNW 6.9 mph - N/A   Clear